Weather in Beverly Hills

United States     34°04′39″N   118°24′14″W
temp.,
°C
wind,
m/s
gust,
m/s
humid.,
%
clouds,
%
prec.,
mm/h
press.,
hPa
HPBL,
m
16 may, sun
sun1623:00+14w337835 0.0 1014375
02:00+14wsw228099 0.1 1013325
05:00+14sw228199 0.2 1014373
08:00+14sw2280100 0.2 1015461
11:00+15ssw227387 0.3 1016663
14:00+16sw337157 0.1 1016759
17:00+16sw436940 0.1 1015713
20:00+15sw337613 0.0 1014469
17 may, mon
mon1723:00+15wsw337950 0.0 1016395
02:00+14wsw227891 0.0 1015332
05:00+14wsw117996 0.1 1016321
08:00+15ssw117541 0.0 1016423
11:00+17ssw426618 0.0 1016726
14:00+18ssw43635 0.0 1015572
17:00+18sw55660 0.0 1014530
20:00+16ssw43750 0.0 1014347
18 may, tue
tue1823:00+15sse228220 0.0 1015364
02:00+15ese238149 0.0 1015441
05:00+15ese227932 0.0 1014427
08:00+16s117338 0.0 1015580
11:00+19ssw43620 0.0 1014592
14:00+18sw556816 0.0 1013436
17:00+18ssw43693 0.0 1011346
20:00+16sse22774 0.0 1011244
19 may, wed
wed1923:00+17sse12770 0.0 1012208
02:00+16s22804 0.0 1011150
05:00+15s12868 0.0 1011235
08:00+17sse118010 0.0 1012359
11:00+19ssw43676 0.0 1012638
14:00+19ssw436812 0.0 1010495
17:00+19sw44631 0.0 1009395
20:00+17wsw44590 0.0 1009301
20 may, thu
thu2023:00+15wsw11640 0.0 1011264
02:00+15ssw12686 0.0 1011376
05:00+15se457497 0.0 1011719
08:00+16ese456984 0.0 1011893
11:00+17se346298 0.0 10121083
14:00+19ssw53598 0.0 1010938
17:00+19wsw65500 0.0 1009644
20:00+16wsw22510 0.0 1009288